Zurück zum Katalog

STARLINK-30071

AktivKommunikationVLEO
NORAD 56708·PAYLOAD·🇺🇸 United States

Gestartet May 19, 2023 von Cape Canaveral Space Force Station

Loading…

Nächste Überflüge (nächste 24 Stunden)

TLE

AktuellSource: CelesTrak SupGP

Epoche: Sep 15, 2026, 02:05 UTC

1 56708C 23067W   26258.08729167  .00023998  00000+0  86924-3 0  2587
2 56708  43.0002 285.0458 0001670 260.3616 100.5139 15.27564625    10

Verfolge STARLINK-30071 in Echtzeit mit AllMySat

Download on the App Store